Hourly Data Report for September 18, 2017

All times are specified in Local Standard Time (LST). Add 1 hour to adjust for Daylight Saving Time where and when it is observed.

MISCOU ISLAND (AUT)
NEW BRUNSWICK

48°00'32.002" N
64°29'39.008" W
4.00 m
8103050
71719
WMI

Download Data

Hourly Data (September 2017)
Hourly Data Report for September 18, 2017
Temp Definition
°C
Dew Point Temp Definition
°C
Rel Hum Definition
%
Wind Dir Definition
10's deg

Wind Spd Definition
km/h
Visibility Definition
km
Stn Press Definition
kPa
Hmdx Definition


Wind Chill Definition


Weather Definition


TIME
00:00 11.5 10.4 93 7 16   102.40     LegendNANA
01:00 11.6 10.5 93 7 17   102.40     LegendNANA
02:00 11.6 10.6 94 8 19   102.37     LegendNANA
03:00 11.6 10.6 94 8 20   102.39     LegendNANA
04:00 11.7 10.7 94 7 18   102.42     LegendNANA
05:00 11.3 10.3 94 5 18   102.47     LegendNANA
06:00 11.9 10.5 91 6 17   102.50     LegendNANA
07:00 12.1 10.0 87 10 15   102.49     LegendNANA
08:00 12.4 10.3 87 8 14   102.53     LegendNANA
09:00 12.7 10.5 86 8 14   102.57     LegendNANA
10:00 13.1 10.8 86 8 13   102.58     LegendNANA
11:00 13.5 11.0 85 9 13   102.56     LegendNANA
12:00 13.7 10.6 82 9 12   102.55     LegendNANA
13:00 13.9 11.0 83 9 12   102.53     LegendNANA
14:00 13.9 11.7 87 7 16   102.50     LegendNANA
15:00 13.9 12.0 89 7 12   102.51     LegendNANA
16:00 13.4 11.8 90 7 11   102.50     LegendNANA
17:00 13.5 11.9 90 10 10   102.49     LegendNANA
18:00 13.3 11.8 91 9 7   102.49     LegendNANA
19:00 13.2 11.9 91 7 10   102.48     LegendNANA
20:00 13.4 12.0 92 7 8   102.49     LegendNANA
21:00 13.4 12.1 92 5 4   102.51     LegendNANA
22:00 13.3 12.1 93 2 4   102.48     LegendNANA
23:00 13.4 12.3 93 7 5   102.44     LegendNANA

Notes on Data Quality.

Legend

  • E = Estimated
  • M = Missing
  • NA = Not Available
  • ‡ = Partner data that is not subject to review by the National Climate Archives
Date modified: